Location: Newark
(55.4831°N, 25.9422°E)
Time: 14:57:05
(UTC+00:00)

X-37B - Visible Passes

Search period start: 18 September 2020 00:00
Search period end: 28 September 2020 00:00
Orbit: 386 x 387 km, 45.0° (Epoch: 15 September)

Date Brightness Start Highest point End Pass type
(mag) Time Alt. Az. Time Alt. Az. Time Alt. Az.
18 Sep 3.1 01:52:47 12° SSE 01:52:47 12° SSE 01:53:40 10° SSE visible
19 Sep 2.8 02:29:10 12° SSW 02:29:51 13° S 02:31:26 10° SSE visible
20 Sep 3.0 03:06:39 10° SSW 03:07:18 10° SSW 03:07:58 10° S visible
21 Sep 3.1 02:09:48 11° S 02:09:48 11° S 02:10:24 10° SSE visible
